User: anonymous   Login
Location: Igri�s
(42.2144°N, 0.4320°W)
Time: 16:27:11
(UTC+00:00)
Language:

Cosmos 1470 Rocket - Orbit

View from above orbital plane
View from above orbital plane
View from above satellite
View from above satellite

Ground track
Ground track

The orbit data is extracted from the following two-line orbital elements,

1 14148U 83061B   20292.85760816 +.00000090 +00000-0 +81026-5 0  9993
2 14148 082.5220 207.1278 0020027 273.0653 150.0084 14.83349120994514
Epoch (UTC): 18 October 2020 20:34:57
Eccentricity: 0.0020027
inclination: 82.5220°
perigee height: 605 km
apogee height: 633 km
right ascension of ascending node: 207.1278°
argument of perigee: 273.0653°
revolutions per day: 14.83349120
mean anomaly at epoch: 150.0084°
orbit number at epoch: 99451

The dashed part of the orbit path shows where the satellite is in the earth's shadow,  

DLR